Regional Weather Roundup
Issued by NWS New Orleans/Baton Rouge, LA

Home | Current Version | Previous Version | Text Only | Print | Product List | Glossary On
Versions: 1 2 3 4 5 6 7 8 9 10 11 12 13 14 15 16 17 18 19 20 21 22 23 24 25 26 27 28 29 30 31 32 33 34 35 36 37 38 39 40 41 42 43 44 45 46 47 48 49 50
991
ASUS44 KLIX 290807
RWRLIX
NEW ORLEANS REGIONAL WEATHER ROUNDUP
NATIONAL WEATHER SERVICE NEW ORLEANS LA
300 AM CDT SUN MAR 29 2015

NOTE: "FAIR" INDICATES FEW OR NO CLOUDS BELOW 12,000 FEET WITH NO
      SIGNIFICANT WEATHER AND/OR OBSTRUCTIONS TO VISIBILITY.
      SKY/WX - SKY CONDITION AND SIGNIFICANT WEATHER.
      TMP - AIR TEMPERATURE.     DP    - DEWPOINT TEMPERATURE.
      RH  - RELATIVE HUMIDITY.   PRES  - PRESSURE.
      HI  - HEAT INDEX.          WCI   - WIND CHILL INDEX.

*  THESE STATIONS ARE NOT NWS OR FAA STATIONS AND ARE NOT UNDER
   NWS QUALITY CONTROL.

LAZ038-040-048-061>063-065>067-069-290900-
SOUTHEAST LOUISIANA

CITY           SKY/WX    TMP DP  RH WIND       PRES   REMARKS
N.O. AUDUBON     N/A     59  55  87 MISG        N/A
N.O. INTL ARPT PTCLDY    56  50  80 SE5       30.22F
N.O. LAKEFRONT CLEAR     59  52  77 SE8       30.23F
SLIDELL        CLEAR     49  42  77 E5        30.24F
BATON ROUGE    CLEAR     51  49  92 E5        30.21S
BOOTHVILLE     CLEAR     57  53  86 E5        30.23F
BELLE CHASSE   CLEAR     57  52  83 SE6       30.22F
BOGALUSA*        N/A     49  35  59 NE3       30.28S
GALLIANO*      SUNNY     57  56  94 CALM      30.22S
NEW ROADS*       N/A     54  51  89 E5        30.20S
GONZALES*      PTSUNNY   53  53 100 CALM      30.21S
HAMMOND*       CLEAR     52  46  82 E5        30.25S
HOUMA*         CLEAR     54  54  99 NE3       30.21S FOG
PORT FOURCHON* SUNNY     66  61  82 SE7       30.24S

$$

MSZ070-080>082-290900-
SOUTHERN MISSISSIPPI

CITY           SKY/WX    TMP DP  RH WIND       PRES   REMARKS
MCCOMB         CLOUDY    47  35  63 MISG      30.25S
GULFPORT       CLEAR     49  36  61 E7        30.25F
BILOXI         CLEAR     49  35  58 E12       30.25F
PASCAGOULA     CLEAR     45  36  70 NE6       30.27F

$$

COASTAL OBSERVATIONS
LAKE AND NEARSHORE STATIONS

STATION/POSITION TIME  TEMP    WIND        PRES    WAVE
                       AIR SEA DIR/SP/G            HT/PER
                 (UTC) (F)     (DEG/KT/KT) (MB)    (FT/S)

OFFSHORE STATIONS

STATION/POSITION TIME  TEMP    WIND        PRES    WAVE
                       AIR SEA DIR/SP/G            HT/PER
                 (UTC) (F)     (DEG/KT/KT) (MB)    (FT/S)
64 S DAUPHIN ISL 0750   63 71   90/  8/ 10 1024.5    1/ 5

$$




USA.gov is the U.S. government's official web portal to all federal, state and local government web resources and services.